This is the latest recevied weather packets stored in our database for station/object ALTO-WX. If no packets are shown the sender has not sent any weather packets the latest 10 day(s).
| Time | Temp. | Humidity | Pressure | Rain* | Wind** | Luminosity | Snow |
|---|---|---|---|---|---|---|---|
| 1778328935 | 11.11° C | 84% | 974.1 hPa | 0 mm | - | - | - |
| 1778328064 | 11.11° C | 84% | 974.1 hPa | 0 mm | - | - | - |
| 1778327137 | 10.56° C | 86% | 973.7 hPa | 0 mm | - | - | - |
| 1778326252 | 10° C | 88% | 974 hPa | 0 mm | - | - | - |
| 1778325335 | 9.44° C | 88% | 973.9 hPa | 0 mm | - | - | - |
| 1778324460 | 8.89° C | 88% | 973.9 hPa | 0 mm | - | - | - |
| 1778323533 | 8.89° C | 86% | 973.4 hPa | 0 mm | - | - | - |
| 1778322656 | 8.89° C | 89% | 974.1 hPa | 0 mm | - | - | - |
| 1778321734 | 8.89° C | 89% | 974.1 hPa | 0 mm | - | - | - |
| 1778320866 | 8.89° C | 89% | 974.1 hPa | 0 mm | - | - | - |
| 1778319934 | 8.89° C | 85% | 974 hPa | 0 mm | - | - | - |
| 1778319054 | 8.89° C | 86% | 974.3 hPa | 0 mm | - | - | - |
| 1778318135 | 8.89° C | 86% | 974.3 hPa | 0 mm | - | - | - |
| 1778317265 | 8.89° C | 86% | 974.3 hPa | 0 mm | - | - | - |
| 1778316334 | 8.33° C | 82% | 974.4 hPa | 0 mm | - | - | - |
| 1778315453 | 8.33° C | 87% | 974.2 hPa | 0 mm | - | - | - |
| 1778314535 | 7.78° C | 87% | 974.1 hPa | 0 mm | - | - | - |
| 1778313664 | 7.78° C | 87% | 974.1 hPa | 0 mm | - | - | - |
| 1778312734 | 7.78° C | 75% | 975 hPa | 0 mm | - | - | - |
| 1778311855 | 7.78° C | 75% | 975 hPa | 0 mm | - | - | - |
| 1778310936 | 7.22° C | 75% | 974.9 hPa | 0 mm | - | - | - |
| 1778310065 | 6.67° C | 75% | 974.9 hPa | 0 mm | - | - | - |
| 1778309135 | 6.67° C | 50% | 975.2 hPa | 0 mm | - | - | - |
| 1778308251 | 7.22° C | 52% | 974.9 hPa | 0 mm | - | - | - |
| 1778307335 | 7.22° C | 52% | 974.9 hPa | 0 mm | - | - | - |
* Rain latest hour (hover to see other rain measurements)
** Current wind speed in m/s (hover to see current wind gust speed)